Back to catalog

FENGYUN 1C DEB

AliveSSO
NORAD 30514·DEBRIS·🇨🇳 China

Launched May 10, 1999 from Taiyuan Satellite Launch Center

Loading…

Next Passes (next 24 hours)

TLE

FreshSource: Space-Track

Epoch: Sep 13, 2026, 18:34 UTC

1 30514U 99025AJC 26256.77417417  .00001090  00000-0  33709-3 0  9992
2 30514  98.3937 278.0459 0171218 355.0368   4.9113 14.35220929 21670

Track FENGYUN 1C DEB in real time with AllMySat

Download on the App Store